GSAT0201 (GALILEO 5)

Last updated on Sun Sep 20 2026 00:02:47 GMT+0000 (Coordinated Universal Time)

1 40128U 14050A 26261.66135894 .00000005 00000+0 00000+0 0 9997 2 40128 48.7780 269.5934 1687129 183.0003 175.8597 1.85519745 80058
UTC large
Height (km)
Speed (km/s)
/
Latitude / Longitude
Inclination (degrees)
Orbital Period (minutes)
Azimuth
Elevation
Range (km)
Doppler Factor

Next 0 passes for location: London (51.5072 / 0.1276)

No passes found over London.
GSAT0201 (GALILEO 5)